This is the latest recevied weather packets stored in our database for station/object DM3DP. If no packets are shown the sender has not sent any weather packets the latest 10 day(s).
| Time | Temp. | Humidity | Pressure | Rain* | Wind** | Luminosity | Snow |
|---|---|---|---|---|---|---|---|
| 1778270963 | 12.22° C | 75% | 1016.3 hPa | 0 mm | - | 0 W/m² | - |
| 1778270634 | 12.22° C | 75% | 1016.3 hPa | 0 mm | - | 0 W/m² | - |
| 1778270303 | 12.22° C | 75% | 1016.3 hPa | 0 mm | - | 0 W/m² | - |
| 1778269974 | 12.78° C | 74% | 1016.2 hPa | 0 mm | - | 0 W/m² | - |
| 1778268983 | 13.33° C | 73% | 1016.1 hPa | 0 mm | - | 0 W/m² | - |
| 1778268653 | 13.89° C | 71% | 1015.9 hPa | 0 mm | - | 0 W/m² | - |
| 1778268324 | 13.89° C | 71% | 1015.8 hPa | 0 mm | - | 0 W/m² | - |
| 1778267993 | 13.89° C | 70% | 1015.8 hPa | 0 mm | - | 0 W/m² | - |
| 1778267663 | 14.44° C | 69% | 1015.7 hPa | 0 mm | - | 1 W/m² | - |
| 1778267334 | 14.44° C | 69% | 1015.7 hPa | 0 mm | - | 2 W/m² | - |
| 1778267003 | 14.44° C | 67% | 1015.6 hPa | 0 mm | - | 3 W/m² | - |
| 1778266674 | 15° C | 67% | 1015.6 hPa | 0 mm | - | 4 W/m² | - |
| 1778266343 | 15° C | 66% | 1015.5 hPa | 0 mm | - | 6 W/m² | - |
| 1778265354 | 16.11° C | 64% | 1015.3 hPa | 0 mm | - | 14 W/m² | - |
| 1778265024 | 16.67° C | 63% | 1015.3 hPa | 0 mm | - | 20 W/m² | - |
| 1778264693 | 17.22° C | 61% | 1015.2 hPa | 0 mm | - | 23 W/m² | - |
| 1778264363 | 17.22° C | 58% | 1015.2 hPa | 0 mm | - | 27 W/m² | - |
| 1778264033 | 17.22° C | 58% | 1015.2 hPa | 0 mm | - | 31 W/m² | - |
| 1778263703 | 17.22° C | 54% | 1015.1 hPa | 0 mm | - | 34 W/m² | - |
| 1778263374 | 17.22° C | 52% | 1015.1 hPa | 0 mm | - | 37 W/m² | - |
| 1778263043 | 17.22° C | 52% | 1015.1 hPa | 0 mm | - | 41 W/m² | - |
| 1778262713 | 17.22° C | 52% | 1015.1 hPa | 0 mm | - | 45 W/m² | - |
| 1778262383 | 17.22° C | 51% | 1015.1 hPa | 0 mm | - | 49 W/m² | - |
| 1778262053 | 17.22° C | 50% | 1015 hPa | 0 mm | - | 54 W/m² | - |
| 1778261723 | 17.22° C | 50% | 1014.9 hPa | 0 mm | - | 64 W/m² | - |
* Rain latest hour (hover to see other rain measurements)
** Current wind speed in m/s (hover to see current wind gust speed)